Regional Weather Roundup
Issued by NWS Goodland, KS

Home | Current Version | Previous Version | Graphics & Text | Print | Product List | Glossary On
Versions: 1 2 3 4 5 6 7 8 9 10 11 12 13 14 15 16 17 18 19 20 21 22 23 24 25 26 27 28 29 30 31 32 33 34 35 36 37 38 39 40 41 42 43 44 45 46 47 48 49 50
000
ASUS43 KGLD 050408
RWRGLD

GOODLAND FORECAST AREA HOURLY WEATHER ROUNDUP
NATIONAL WEATHER SERVICE GOODLAND KS
1000 PM MDT SAT JUL 04 2015

...OFFICIAL OBSERVATIONS...

CITY           SKY/WX    TMP DP  RH WIND       PRES   REMARKS
GOODLAND KS    MOCLDY    78  62  57 SE18G29   29.93R
HILL CITY KS   MOCLDY    81  63  54 SE7       29.90R
IMPERIAL NEB   CLOUDY    82  61  48 SE13      29.89R
MCCOOK NEB     MOCLDY    80  63  55 SE13      29.87R
AKRON CO       MOCLDY    71  56  58 S13       29.95R
BURLINGTON CO  CLOUDY    78  58  49 SE16G26   29.95R
LIMON CO       MOCLDY    67  50  54 NE12      30.03R
$$

...UNOFFICIAL OBSERVATIONS...

CITY           SKY/WX    TMP DP  RH WIND       PRES   REMARKS
COLBY KS       CLEAR     81  66  61 SE15      29.93S
GOVE KS          N/A     80  32  17 MISG        N/A
NORTON KS      CLEAR     79  61  53 SE10      29.89R
SHARON SPRINGS   N/A     80  61  52 SE15        N/A
KIT CARSON CO    N/A     77  54  44 MISG        N/A
$$



USA.gov is the U.S. government's official web portal to all federal, state and local government web resources and services.